Latest Weather Observations for Edinburgh

IDS60801

Issued at 6:05 pm CST Wednesday 1 October 2014 (issued every 30 minutes, with the page automatically refreshed every 10 minutes)

About weather observations | Map of weather stations | Latest weather observations for SA | Other Formats
Station Details ID: 023083 Name: EDINBURGH RAAF Lat: -34.71 Lon: 138.62 Height: 16.54 m
Data from the previous 72 hours. | See also: Recent months at Edinburgh
Date/Time
CST
Temp
°C
App
Temp
°C
Dew
Point
Rel
Hum
%
Delta-T
°C
Wind Press
QNH
hPa
Press
MSL
hPa
Rain
since 9 am
mm
Dir
 
Spd
km/h
Gust
km/h
Spd
kts
Gust
kts
01/06:00pm 15.2 9.7 5.7 53 4.5 SSW 24 32 13 17 1026.8 1026.8 0.0
01/05:30pm 15.8 10.3 6.0 52 4.7 SSW 24 33 13 18 1026.8 1026.8 0.0
01/05:00pm 16.1 9.9 6.3 52 4.8 SW 28 35 15 19 1026.7 1026.7 0.0
01/04:30pm 17.1 11.2 6.0 48 5.4 SSW 26 33 14 18 1026.5 1026.5 0.0
01/04:00pm 16.9 10.7 6.1 49 5.3 SW 28 35 15 19 1026.6 1026.6 0.0
01/03:30pm 17.1 11.0 6.6 50 5.1 SW 28 35 15 19 1026.6 1026.6 0.0
01/03:00pm 17.3 11.5 6.2 48 5.4 SW 26 35 14 19 1026.7 1026.7 0.0
01/02:30pm 17.3 11.2 6.8 50 5.2 SW 28 35 15 19 1026.9 1026.9 0.0
01/02:00pm 17.1 10.9 6.0 48 5.4 WSW 28 37 15 20 1027.1 1027.1 0.0
01/01:30pm 17.6 11.4 6.2 47 5.6 WSW 28 35 15 19 1027.3 1027.3 0.0
01/01:00pm 18.1 11.9 6.0 45 5.9 WSW 28 35 15 19 1027.6 1027.6 0.0
01/12:30pm 16.9 11.2 4.9 45 5.7 WSW 24 33 13 18 1027.8 1027.8 0.0
01/12:00pm 16.9 11.1 4.6 44 5.8 WSW 24 35 13 19 1028.0 1028.0 0.0
01/11:30am 16.8 11.3 5.7 48 5.3 SW 24 33 13 18 1028.1 1028.1 0.0
01/11:00am 16.5 11.6 4.2 44 5.8 WSW 19 32 10 17 1028.3 1028.3 0.0
01/10:30am 16.2 12.4 1.9 38 6.3 S 11 20 6 11 1028.6 1028.6 0.0
01/10:00am 16.2 12.3 3.3 42 5.9 SSW 13 20 7 11 1028.3 1028.3 0.0
01/09:30am 15.0 10.4 3.5 46 5.2 SSW 17 24 9 13 1028.4 1028.4 0.0
01/09:00am 15.2 11.2 4.9 50 4.8 SSE 15 24 8 13 1028.3 1028.3 0.4
01/08:30am 14.1 10.2 5.2 55 4.1 SSE 15 24 8 13 1028.1 1028.1 0.4
01/08:00am 13.8 10.8 6.2 60 3.6 SE 11 17 6 9 1027.7 1027.7 0.4
01/07:30am 12.0 9.3 5.6 65 3.0 SSE 9 13 5 7 1027.4 1027.4 0.4
01/07:00am 12.2 10.1 6.5 68 2.7 SE 7 9 4 5 1027.1 1027.1 0.4
01/06:30am 11.5 10.6 7.8 78 1.8 S 2 6 1 3 1026.8 1026.8 0.4
01/06:00am 10.4 8.6 7.1 80 1.6 S 6 7 3 4 1026.1 1026.1 0.4
01/05:30am 10.2 8.2 7.1 81 1.5 SSW 7 7 4 4 1025.7 1025.7 0.4
01/05:00am 10.8 8.2 7.7 81 1.5 S 11 15 6 8 1025.2 1025.2 0.4
01/04:30am 10.6 8.9 7.5 81 1.5 S 6 9 3 5 1024.8 1024.8 0.4
01/04:00am 9.8 8.4 5.6 75 1.9 S 2 6 1 3 1024.4 1024.4 0.4
01/03:30am 10.9 9.0 6.6 75 2.0 S 6 7 3 4 1024.2 1024.2 0.4
01/03:00am 11.0 8.9 6.6 74 2.1 S 7 11 4 6 1024.0 1024.0 0.4
01/02:30am 11.6 8.3 6.5 71 2.4 S 13 20 7 11 1023.9 1023.9 0.4
01/02:00am 11.1 8.6 6.6 74 2.1 S 9 11 5 6 1023.7 1023.7 0.4
01/01:30am 11.5 9.0 6.6 72 2.3 S 9 13 5 7 1023.7 1023.7 0.4
01/01:00am 11.6 8.3 6.5 71 2.4 SSW 13 17 7 9 1023.6 1023.6 0.4
01/12:30am 12.2 9.3 6.7 69 2.6 S 11 15 6 8 1023.5 1023.5 0.4
01/12:00am 12.3 7.7 6.6 68 2.7 SSW 20 26 11 14 1023.3 1023.3 0.4
 
Date/Time
CST
Temp
°C
App
Temp
°C
Dew
Point
Rel
Hum
%
Delta-T
°C
Wind Press
QNH
hPa
Press
MSL
hPa
Rain
since 9 am
mm
Dir
 
Spd
km/h
Gust
km/h
Spd
kts
Gust
kts
30/11:30pm 12.2 8.0 5.8 65 3.0 SSW 17 26 9 14 1022.9 1022.9 0.4
30/11:00pm 12.2 7.3 4.9 61 3.3 SSW 20 28 11 15 1022.8 1022.8 0.4
30/10:30pm 12.7 7.0 4.9 59 3.6 SW 24 35 13 19 1022.6 1022.6 0.4
30/10:00pm 12.5 7.2 5.0 60 3.4 SSW 22 28 12 15 1022.4 1022.4 0.4
30/09:30pm 13.2 5.9 4.4 55 4.0 SSW 32 39 17 21 1022.0 1022.0 0.4
30/09:00pm 13.6 8.4 8.9 73 2.4 WSW 26 35 14 19 1021.7 1021.7 0.4
30/08:30pm 14.1 8.1 8.5 69 2.8 WSW 30 41 16 22 1021.3 1021.3 0.4
30/08:00pm 14.1 6.7 8.5 69 2.8 WSW 37 48 20 26 1020.9 1020.9 0.4
30/07:30pm 14.5 6.6 7.8 64 3.3 WSW 39 48 21 26 1020.5 1020.5 0.4
30/07:00pm 14.4 6.5 7.9 65 3.2 SW 39 52 21 28 1019.7 1019.7 0.4
30/06:30pm 15.1 7.5 7.6 61 3.7 SW 37 46 20 25 1019.1 1019.1 0.4
30/06:00pm 14.8 7.5 7.4 61 3.6 SW 35 43 19 23 1018.7 1018.7 0.4
30/05:30pm 15.7 8.1 7.5 58 4.1 SW 37 50 20 27 1018.3 1018.3 0.4
30/05:16pm 16.3 7.6 5.9 50 5.0 SW 41 59 22 32 1018.1 1018.1 0.4
30/05:00pm 16.7 7.0 4.1 43 5.9 SW 44 59 24 32 1017.7 1017.7 0.4
30/04:30pm 17.2 7.6 4.5 43 6.0 SW 44 57 24 31 1017.3 1017.3 0.4
30/04:00pm 16.6 8.0 6.7 52 4.9 SW 41 56 22 30 1017.0 1017.0 0.4
30/03:30pm 17.3 9.5 9.7 61 4.0 SW 41 52 22 28 1016.7 1016.7 0.4
30/03:00pm 17.0 10.4 11.3 69 3.1 SW 37 48 20 26 1016.5 1016.5 0.4
30/02:39pm 15.7 8.6 12.1 79 2.0 SW 41 56 22 30 1016.7 1016.7 0.4
30/02:30pm 15.7 8.5 13.2 85 1.4 SW 43 56 23 30 1016.6 1016.6 0.4
30/02:29pm 15.3 7.9 12.4 83 1.6 SW 43 56 23 30 1016.6 1016.6 0.4
30/02:11pm 15.4 7.4 12.5 83 1.6 SW 46 61 25 33 1016.5 1016.5 0.4
30/02:07pm 17.1 9.4 11.4 69 3.1 WSW 43 61 23 33 1016.2 1016.2 0.0
30/02:00pm 19.6 12.1 10.9 57 4.7 WSW 41 54 22 29 1016.0 1016.0 0.0
30/01:54pm 19.5 11.3 9.7 53 5.2 WSW 43 54 23 29 1015.9 1015.9 0.0
30/01:30pm 20.2 11.1 9.7 51 5.6 W 48 61 26 33 1015.7 1015.7 0.0
30/01:00pm 21.4 13.5 10.9 51 5.8 W 43 57 23 31 1015.7 1015.7 0.0
30/12:30pm 20.6 12.2 9.8 50 5.8 W 44 57 24 31 1015.7 1015.7 0.0
30/12:00pm 20.4 12.1 10.2 52 5.5 W 44 56 24 30 1015.4 1015.4 0.0
30/11:30am 20.3 12.7 10.4 53 5.4 W 41 54 22 29 1015.3 1015.3 0.0
30/11:00am 19.7 11.4 9.9 53 5.2 W 44 54 24 29 1015.3 1015.3 0.0
30/10:30am 20.2 12.3 9.2 49 5.8 W 41 50 22 27 1015.2 1015.2 0.0
30/10:00am 19.7 12.8 10.4 55 5.0 W 37 48 20 26 1015.3 1015.3 0.0
30/09:30am 19.2 12.0 9.1 52 5.3 W 37 54 20 29 1015.1 1015.1 0.0
30/09:21am 19.5 13.3 9.4 52 5.3 WNW 32 50 17 27 1014.9 1014.9 0.0
30/09:00am 19.2 11.9 8.8 51 5.4 W 37 52 20 28 1014.7 1014.7 0.0
30/08:38am 19.4 13.1 9.0 51 5.5 W 32 50 17 27 1014.6 1014.6 0.0
30/08:30am 18.6 12.6 8.6 52 5.2 WNW 30 39 16 21 1014.6 1014.6 0.0
30/08:00am 17.1 11.8 8.3 56 4.5 NW 26 33 14 18 1014.2 1014.2 0.0
30/07:30am 14.5 10.6 8.5 67 3.0 NNW 19 28 10 15 1013.4 1013.4 0.0
30/07:00am 11.6 9.3 7.5 76 2.0 N 9 13 5 7 1013.8 1013.8 0.0
30/06:30am 9.9 8.0 6.8 81 1.5 N 6 9 3 5 1013.4 1013.4 0.0
30/06:00am 9.5 6.2 6.6 82 1.4 N 13 17 7 9 1012.7 1012.7 0.0
30/05:30am 10.0 6.8 6.9 81 1.5 N 13 15 7 8 1012.5 1012.5 0.0
30/05:00am 10.8 7.4 7.7 81 1.5 N 15 20 8 11 1011.9 1011.8 0.0
30/04:30am 10.1 7.2 8.2 88 0.9 NE 13 15 7 8 1012.0 1011.9 0.0
30/04:00am 9.3 6.7 7.6 89 0.8 NE 11 13 6 7 1011.9 1011.8 0.0
30/03:30am 10.0 6.7 8.1 88 0.9 NE 15 15 8 8 1011.8 1011.7 0.0
30/03:00am 9.8 6.8 7.9 88 0.9 NE 13 15 7 8 1012.3 1012.3 0.0
30/02:30am 10.1 7.3 8.5 90 0.8 NE 13 17 7 9 1012.6 1012.6 0.0
30/02:00am 10.6 7.5 8.9 89 0.8 NNE 15 19 8 10 1012.9 1012.9 0.0
30/01:30am 10.2 7.0 8.5 89 0.8 NE 15 19 8 10 1013.2 1013.2 0.0
30/01:00am 10.0 7.1 8.3 89 0.8 NE 13 17 7 9 1013.6 1013.6 0.0
30/12:30am 10.0 7.1 8.3 89 0.8 N 13 19 7 10 1014.2 1014.2 0.0
30/12:00am 11.2 9.8 8.8 85 1.2 ENE 6 7 3 4 1014.3 1014.3 0.0
 
Date/Time
CST
Temp
°C
App
Temp
°C
Dew
Point
Rel
Hum
%
Delta-T
°C
Wind Press
QNH
hPa
Press
MSL
hPa
Rain
since 9 am
mm
Dir
 
Spd
km/h
Gust
km/h
Spd
kts
Gust
kts
29/11:30pm 11.5 10.1 9.4 87 1.1 ENE 7 9 4 5 1014.6 1014.6 0.0
29/11:00pm 11.0 10.7 8.6 85 1.2 CALM 0 0 0 0 1015.1 1015.1 0.0
29/10:30pm 13.8 12.9 10.8 82 1.6 S 6 6 3 3 1015.2 1015.2 0.0
29/10:00pm 13.4 12.3 10.8 84 1.4 S 7 11 4 6 1015.4 1015.4 0.0
29/09:30pm 13.7 11.2 10.9 83 1.5 SW 15 17 8 9 1015.2 1015.2 0.0
29/09:00pm 13.3 10.9 10.1 81 1.7 W 13 17 7 9 1015.0 1015.0 0.0
29/08:30pm 13.5 11.3 9.2 75 2.2 WSW 11 13 6 7 1014.9 1014.9 0.0
29/08:00pm 14.1 11.7 8.5 69 2.8 WSW 11 13 6 7 1014.7 1014.7 0.0
29/07:30pm 15.1 13.0 8.1 63 3.5 W 9 13 5 7 1014.3 1014.3 0.0
29/07:00pm 15.5 14.0 8.3 62 3.6 W 6 7 3 4 1013.8 1013.8 0.0
29/06:30pm 16.7 14.9 7.9 56 4.4 SW 7 7 4 4 1013.5 1013.5 0.0
29/06:00pm 18.3 16.3 8.8 54 4.9 WSW 9 11 5 6 1013.3 1013.3 0.0
29/05:30pm 19.6 17.2 8.6 49 5.7 WSW 11 15 6 8 1013.4 1013.4 0.0
29/05:00pm 19.7 16.4 8.1 47 6.0 W 15 22 8 12 1013.2 1013.2 0.0
29/04:30pm 20.4 15.7 7.7 44 6.5 W 22 30 12 16 1013.2 1013.2 0.0
29/04:00pm 20.7 15.3 8.0 44 6.6 WSW 26 35 14 19 1013.1 1013.1 0.0
29/03:30pm 21.2 15.2 8.5 44 6.7 W 30 35 16 19 1013.0 1013.0 0.0
29/03:00pm 21.8 16.2 8.7 43 6.9 W 28 39 15 21 1013.1 1013.1 0.0
29/02:30pm 21.5 15.4 8.4 43 6.9 W 30 41 16 22 1013.2 1013.2 0.0
29/02:00pm 21.7 15.6 8.2 42 7.1 W 30 41 16 22 1013.6 1013.6 0.0
29/01:30pm 21.7 16.1 8.9 44 6.8 W 28 39 15 21 1013.9 1013.9 0.0
29/01:00pm 21.4 16.2 8.7 44 6.7 W 26 35 14 19 1014.2 1014.2 0.0
29/12:30pm 21.0 16.6 7.6 42 6.9 WNW 20 32 11 17 1014.6 1014.6 0.0
29/12:00pm 20.7 15.6 7.7 43 6.7 WNW 24 35 13 19 1015.2 1015.2 0.0
29/11:30am 19.7 15.5 8.4 48 5.9 WNW 20 32 11 17 1015.6 1015.6 0.0
29/11:00am 18.9 15.0 9.4 54 5.0 WNW 20 30 11 16 1016.0 1016.0 0.0
29/10:30am 18.4 14.7 10.3 59 4.3 WNW 20 32 11 17 1016.2 1016.2 0.0
29/10:00am 17.8 13.6 11.1 65 3.6 W 24 33 13 18 1016.6 1016.6 0.0
29/09:30am 18.0 14.7 10.9 63 3.8 WNW 19 24 10 13 1016.6 1016.6 0.0
29/09:00am 17.0 14.4 11.9 72 2.8 NW 17 24 9 13 1016.6 1016.6 0.0
29/08:59am 16.9 14.2 11.6 71 2.9 NW 17 24 9 13 1016.6 1016.6 0.0
29/08:43am 16.4 13.9 12.4 77 2.2 NNW 17 22 9 12 1016.5 1016.5 0.0
29/08:30am 15.1 12.6 12.2 83 1.6 NNW 17 20 9 11 1016.5 1016.5 0.0
29/08:00am 13.7 11.7 11.6 87 1.1 N 13 17 7 9 1016.3 1016.3 0.0
29/07:30am 12.2 10.3 10.4 89 0.9 N 11 17 6 9 1016.0 1016.0 0.0
29/07:00am 10.9 9.1 9.5 91 0.7 NNE 9 13 5 7 1015.8 1015.8 0.0
29/06:30am 10.3 8.4 8.9 91 0.7 NE 9 13 5 7 1015.7 1015.7 0.0
29/06:00am 10.1 7.7 8.7 91 0.7 NNE 11 15 6 8 1015.6 1015.6 0.0
29/05:30am 10.0 7.6 8.6 91 0.7 NE 11 13 6 7 1015.3 1015.3 0.0
29/05:00am 9.5 7.0 8.1 91 0.7 NNE 11 13 6 7 1015.0 1015.0 0.0
29/04:30am 10.1 8.1 8.5 90 0.8 N 9 13 5 7 1014.6 1014.6 0.0
29/04:00am 10.4 8.0 8.8 90 0.8 NNE 11 13 6 7 1014.5 1014.5 0.0
29/03:30am 10.5 8.1 8.8 89 0.8 NE 11 13 6 7 1014.4 1014.4 0.0
29/03:00am 11.3 9.5 9.4 88 1.0 NNW 9 13 5 7 1014.2 1014.2 0.0
29/02:30am 12.0 10.6 9.7 86 1.2 WNW 7 13 4 7 1014.4 1014.4 0.0
29/02:00am 13.3 10.3 10.8 85 1.3 W 17 22 9 12 1014.3 1014.3 0.0
29/01:30am 13.7 10.4 10.9 83 1.5 W 19 24 10 13 1014.4 1014.4 0.0
29/01:00am 13.9 10.3 10.5 80 1.8 W 20 26 11 14 1014.7 1014.7 0.0
29/12:30am 13.9 10.2 10.1 78 2.0 W 20 30 11 16 1014.9 1014.9 0.0
29/12:00am 13.8 10.7 10.4 80 1.8 W 17 22 9 12 1015.2 1015.2 0.0
 
Date/Time
CST
Temp
°C
App
Temp
°C
Dew
Point
Rel
Hum
%
Delta-T
°C
Wind Press
QNH
hPa
Press
MSL
hPa
Rain
since 9 am
mm
Dir
 
Spd
km/h
Gust
km/h
Spd
kts
Gust
kts
28/11:30pm 13.3 10.6 10.5 83 1.5 W 15 22 8 12 1015.2 1015.2 0.0
28/11:00pm 12.3 9.4 9.7 84 1.3 W 15 17 8 9 1015.3 1015.3 0.0
28/10:30pm 12.2 9.6 9.2 82 1.5 W 13 15 7 8 1015.4 1015.4 0.0
28/10:00pm 13.1 11.3 9.5 79 1.8 W 9 11 5 6 1015.3 1015.3 0.0
28/09:30pm 13.9 10.7 10.1 78 2.0 WSW 17 24 9 13 1015.1 1015.1 0.0
28/09:00pm 14.7 11.7 9.1 69 2.9 WSW 15 20 8 11 1015.2 1015.2 0.0
28/08:30pm 15.2 11.3 9.3 68 3.0 SW 20 28 11 15 1014.8 1014.8 0.0
28/08:00pm 14.9 11.6 10.9 77 2.1 SW 19 22 10 12 1014.3 1014.3 0.0
28/07:30pm 15.3 12.4 11.1 76 2.2 SSW 17 20 9 11 1013.4 1013.4 0.0
28/07:00pm 16.0 12.7 11.0 72 2.7 SSW 19 26 10 14 1012.7 1012.7 0.0
28/06:30pm 16.4 12.4 10.5 68 3.1 SSW 22 28 12 15 1011.7 1011.6 0.0

Other Formats:

Comma delimited format used in spreadsheet applications
http://www.bom.gov.au/fwo/IDS60801/IDS60801.95676.axf

JavaScript Object Notation format (JSON) in row-major order
http://www.bom.gov.au/fwo/IDS60801/IDS60801.95676.json